THOR ABLESTAR R/B, 47

Orbit data source: Space-Track

THOR ABLESTAR R/B, 47 is space debris in LEO originally from a launch on Wed, 22 Jun 1960 UTC launched from the Air Force Eastern Test Range (AFETR). Debris objects in space refer to the collection of defunct objects orbiting the Earth. Examples of debris include non-operational satellites, rocket bodies, and fragments generated from explosions, collisions, or faulty payload assembly.

Loading next visibility...
Identifier
47, 1960-007C
Orbit
LEO
Country
Flag of USUS
Related business
Manufacturer
Aerojet
Mission
Spacecraft
Bus & Motor
ABLESTAR, Unknown motor
Mass
~600 kg wet, 600 kg dry
Launch date (UTC)
1960-06-22 (66 years ago)
Launch vehicle
Unknown
Launch site
Air Force Eastern Test Range (AFETR)
Object type
Payload
Rocket body
Debris
Shape & HBR
Unknown
Radar Cross Section
Large (>1 m²)

Expand to show TLE details & history
Last TLE update: 8 hours ago

TLE from 8 hours ago
0 THOR ABLESTAR R/B
1    47U 60007C   26104.30606087  .00000405  00000-0  10974-3 0  9990
2    47  66.6648 218.2555 0219442 186.7863 173.0262 14.45252438441578
Epoch: 2026-04-14T07:20Z
TLE epoch observation values (Epoch: 2026-04-14T07:20:43.659Z)
Latitude
-0.00003°
Longitude
-94.41063°
Altitude
898.456 km
Speed
7.322 km/s
True Right ascension
14h 33m 01s
True Declination
0° 00' 00"
Sunlit
Object was in full shadow at epoch
Visualization orbit readout
Latitude
Unknown
Longitude
Unknown
Altitude
Unknown
Speed
Unknown
Apparent Right ascension
Unknown
Apparent Declination
Unknown
Sunlit
N/A
Visualization observer readout
Local Sidereal Time
22:20:56
Azimuth
Unknown
Elevation
Unknown
Doppler factor
Unknown
Orbital elements
Apogee altitude
895.756 km
Perigee altitude
583.371 km
Semi-major axis
7,117.7 km
Eccentricity
0.02194
Inclination
66.6648°
RAAN
218.2555°
Arg. of periapsis
186.7863°
True anomaly
173.32341°
Mean anomaly
173.0262°
Eccentric anomaly
173.1756°
Mean motion
3.61438 °/min
Orbital period
99.6 mins
BSTAR
0.00010974
Loading maneuver chart data...
Computing Atmospheric mass density...
Loading historical data...
Loading historical data...
Loading historical data...
Loading historical data...
Loading historical data...
Loading historical data...
Loading historical data...

Documentation

Showing up to 5 results
|